Regional Weather Roundup
Issued by NWS Upton, NY

Current Version | Previous Version | Graphics & Text | Print | Product List | Glossary Off
Versions: 1 2 3 4 5 6 7 8 9 10 11 12 13 14 15 16 17 18 19 20 21 22 23 24 25 26 27 28 29 30 31 32 33 34 35 36 37 38 39 40 41 42 43 44 45 46 47 48 49 50

000
ASUS41 KOKX 272005
RWROKX

REGIONAL WEATHER ROUNDUP
NATIONAL WEATHER SERVICE NEW YORK NY
400 PM EDT WED AUG 27 2014

NOTE: "FAIR" INDICATES FEW OR NO CLOUDS BELOW 12,000 FEET WITH NO
SIGNIFICANT WEATHER AND/OR OBSTRUCTIONS TO VISIBILITY.

NYZ071-072-176-178-NJZ106-104-272100-
NEW YORK CITY METRO AREA


CITY           SKY/WX    TMP DP  RH WIND       PRES   REMARKS
CENTRAL PARK   SUNNY     89  63  41 CALM      29.92F HX  90
LAGUARDIA APRT MOSUNNY   88  64  44 S14       29.89F
KENNEDY INTL   MOSUNNY   84  65  52 S12       29.92F
NEWARK/LIBERTY MOSUNNY   91  62  37 SW5G16    29.89F HX  91
BRNX BOT. GARD   N/A     88  64  45 S8        29.91R
TETERBORO      PTSUNNY   91  64  40 SW6       29.87F HX  92
$$

NYZ177-179-078>081-272100-
LONG ISLAND NEW YORK

CITY           SKY/WX    TMP DP  RH WIND       PRES   REMARKS
FARMINGDALE    SUNNY     83  63  50 S12       29.92F
ISLIP          MOSUNNY   83  60  45 SW12      29.91F
SHIRLEY        SUNNY     84  63  49 S12       29.93F
WESTHAMPTON    SUNNY     82  65  56 S9        29.94F
MONTAUK POINT    N/A     79  62  56 S9        29.94F
$$

NYZ052-065-067-272100-
HUDSON VALLEY

CITY           SKY/WX    TMP DP  RH WIND       PRES   REMARKS
WHITE PLAINS   SUNNY     87  63  44 VRB5      29.90F
NEWBURGH       MOSUNNY   90  70  51 W14G20    29.91F HX  95
MONTGOMERY     PTSUNNY   89  68  49 SW10      29.88F HX  93
POUGHKEEPSIE   MOSUNNY   90  68  48 SW5       29.86F HX  94
ALBANY         PTSUNNY   82  70  66 W7        29.90F
$$

NJZ001-105-106-008-010-013-015-019>022-104-272100-
NEW JERSEY

CITY           SKY/WX    TMP DP  RH WIND       PRES   REMARKS
NEWARK/LIBERTY MOSUNNY   91  62  37 SW5G16    29.89F HX  91
TETERBORO      PTSUNNY   91  64  40 SW6       29.87F HX  92
CALDWELL       MOSUNNY   88  65  46 VRB5      29.89F HX  90
MORRISTOWN     MOSUNNY   90  66  45 W8        29.91F HX  92
SOMERVILLE     SUNNY     90  67  46 VRB3      29.88F HX  93
LINDEN         FAIR      95  64  36 W8        29.91F HX  97
SUSSEX         SUNNY     89  69  51 VRB6      29.91F HX  93
ANDOVER          N/A     85  68  56 SW8       29.92F
TRENTON        SUNNY     89  63  41 W8        29.91F HX  90
MILLVILLE      SUNNY     86  61  42 SW7       29.94F
ATLANTIC CITY  SUNNY     84  67  56 E9        29.93F
WRIGHTSTOWN    SUNNY     88  65  46 SW6       29.90F
TOMS RIVER     SUNNY     90  57  33 W7        29.93F
BELMAR         SUNNY     88  61  40 W7        29.93F
$$

PAZ047>061-062-071-272100-
EASTERN PENNSYLVANIA

CITY           SKY/WX    TMP DP  RH WIND       PRES   REMARKS
PHILADELPHIA   SUNNY     88  64  44 SW9       29.92F
ALLENTOWN      SUNNY     88  65  46 SW7       29.92F HX  90
SCRANTON       MOSUNNY   86  66  51 CALM      29.94F
$$

CTZ002-004>006-009-010-012-RIZ004-006-007-MAZ004-011-015-272100-
SOUTHERN NEW ENGLAND
 IN CT

CITY           SKY/WX    TMP DP  RH WIND       PRES   REMARKS
BRADLEY INTL   MOSUNNY   91  66  43 SW8       29.86F HX  93
HARTFORD       PTSUNNY   88  67  49 S8        29.87F HX  91
DANBURY        SUNNY     87  67  51 S9        29.91F HX  90
WTRBRY/OXFORD  MOSUNNY   86  68  54 SW8       29.95F
BRIDGEPORT     SUNNY     85  65  51 S14       29.90F
MERIDEN        MOSUNNY   88  64  44 S15G22    29.89F
NEW HAVEN      SUNNY     85  69  58 S9        29.90F
CHESTER        FAIR      82  64  54 SW9       29.93F
GROTON         SUNNY     76  69  79 S8        29.91F
WILLIMANTIC    SUNNY     86  65  49 SW10      29.90F

 IN RI

CITY           SKY/WX    TMP DP  RH WIND       PRES   REMARKS
PROVIDENCE     MOSUNNY   86  63  45 SW15      29.90F
BLOCK ISLAND   SUNNY     77  64  65 SW17      29.94F
WESTERLY       SUNNY     80  62  54 SW10      29.92F

 IN MA

CITY           SKY/WX    TMP DP  RH WIND       PRES   REMARKS
BOSTON         MOSUNNY   90  67  46 SW14G25   29.84F HX  93
WORCESTER      MOSUNNY   83  68  60 W10       29.92F
WESTFIELD      PTSUNNY   87  70  56 VRB5      29.87F HX  92
PROVINCETOWN   SUNNY     79  63  57 SW20G25   29.88F
NANTUCKET      SUNNY     73  68  84 SW13      29.93F
$$

ANZ330-335-338-340-345-350-353-355-272100-
COASTAL MARINE OBSERVATIONS


STATION/POSITION TIME  SKY/WX   TEMP    WIND        PRES    VSBY  WAVE
                                AIR SEA DIR/SP/G                  HT/PER
                 (UTC)          (F)     (DEG/KT/KT) (MB)    (MI)  (FT/S)
NY HARB ENTRANCE NOT AVBL
4S FIRE IS       NOT AVBL
23SW MTP         2000                                 N/A           4/ 9
HUDSON CANYON    2000            74 76  240/  2/  4 1014.1          5/11
EXECUTION ROCKS  2000            83 75  200/ 10/ 14   N/A
WESTERN LI SOUND 2000            83     210/  8/ 10   N/A           0
CENTRAL LI SOUND 1900            79 76  210/  8/ 10   N/A           1
EASTERN LI SOUND 1900            74 69  180/  8/  8   N/A
ROBBINS REEF     2000            83     160/ 17/ 18   N/A
$$


>>>>>>>>>>>>>>>>>>>>>>>>>>>> KEY <<<<<<<<<<<<<<<<<<<<<<<<<<<
>                                                          <
>     SKY/WX - SKY CONDITION/PRESENT WEATHER               <
>     TMP    - TEMPERATURE IN FAHRENHEIT                   <
>     DP     - DEWPOINT IN FAHRENHEIT                      <
>     RH     - RELATIVE HUMIDITY IN PERCENT                <
>     WIND   - DIRECTION AND SPEED IN MPH                  <
>     PRES   - MEAN SEA LEVEL PRESSURE IN INCHES OF HG     <
>     WCI    - WIND CHILL INDEX                            <
>     VSB    - VISIBILITY IN MILES                         <
>     HX     - HEAT INDEX                                  <
>     TC     - TEMPERATURE IN CELSIUS                      <
>     VRB    - VARIABLE WIND DIRECTION                     <
>                                                          <
>>>>>>>>>>>>>>>>>>>>>>>>>>>> KEY <<<<<<<<<<<<<<<<<<<<<<<<<<<





USA.gov is the U.S. government's official web portal to all federal, state and local government web resources and services.